EW0929 Weather Reports


time (UTC)temp
F
wind
direction
speed
knots
gust
knots
rain 1hr
in
rain 24hr
in
rain mn
in
humidity
%
barometer
mb
20260506131603 40 161 0.0 0.0 0.00 0.00 0.00 79 1008.7
20260506130140 40 161 0.0 0.0 0.00 0.00 0.00 78 1008.6
20260506124512 40 161 0.0 0.0 0.00 0.00 0.00 78 1008.7
20260506123109 40 161 0.0 0.0 0.00 0.00 0.00 78 1008.6
20260506121607 41 161 0.0 0.0 0.00 0.00 0.00 75 1008.6
20260506120035 41 161 0.0 0.0 0.00 0.00 0.00 75 1008.2
20260506114537 41 161 0.0 0.0 0.00 0.00 0.00 74 1008.3
20260506113002 41 161 0.0 0.0 0.00 0.00 0.00 73 1008.4
20260506111626 41 161 0.0 0.0 0.00 0.00 0.00 72 1008.4
20260506110110 42 161 0.0 0.0 0.00 0.00 0.00 70 1008.2
20260506104532 43 161 0.0 0.0 0.00 0.00 0.00 70 1008.2
20260506103108 43 161 0.0 0.0 0.00 0.00 0.00 68 1008.1
20260506101616 44 161 0.0 0.0 0.00 0.00 0.00 68 1008.0
20260506100110 44 161 0.0 0.0 0.00 0.00 0.00 67 1008.0
20260506094532 44 161 0.0 0.0 0.00 0.00 0.00 66 1007.8
20260506093002 44 161 0.0 0.0 0.00 0.00 0.00 65 1007.6
20260506091621 45 161 0.0 0.0 0.00 0.00 0.00 64 1007.7
20260506090037 45 161 0.0 0.0 0.00 0.00 0.00 64 1007.8
20260506084523 45 161 0.0 0.0 0.00 0.00 0.00 63 1007.7
20260506083030 46 161 0.0 0.0 0.00 0.00 0.00 62 1007.5
20260506081539 46 161 0.0 0.0 0.00 0.00 0.00 62 1007.5
20260506073010 49 161 0.0 0.0 0.00 0.00 0.00 57 1007.3
20260506071511 50 161 0.0 0.0 0.00 0.00 0.00 55 1007.0
20260506061527 53 161 0.0 0.0 0.00 0.00 0.00 50 1006.5
20260506050113 58 161 0.0 0.0 0.00 0.00 0.00 42 1006.2
20260506044602 60 161 0.0 0.0 0.00 0.00 0.00 40 1006.2
20260506043113 61 161 0.0 0.0 0.00 0.00 0.00 38 1006.1
20260506041610 63 161 0.0 0.0 0.00 0.00 0.00 36 1006.1
20260506040021 64 161 0.0 0.0 0.00 0.00 0.00 35 1005.7
20260506034510 66 161 0.0 0.0 0.00 0.00 0.00 33 1005.5
20260506033106 67 161 0.0 0.0 0.00 0.00 0.00 32 1005.4
20260506031622 69 161 0.0 0.0 0.00 0.00 0.00 30 1005.1
20260506030107 70 161 0.0 0.0 0.00 0.00 0.00 30 1004.9
20260506024602 72 161 0.0 0.0 0.00 0.00 0.00 28 1004.8
20260506023116 75 161 0.0 0.0 0.00 0.00 0.00 27 1004.8
20260506021610 78 161 0.0 0.0 0.00 0.00 0.00 24 1004.7
20260506020009 78 161 0.0 0.0 0.00 0.00 0.00 23 1004.7
20260506014507 78 161 0.0 0.0 0.00 0.00 0.00 24 1004.7
20260506013020 78 161 0.0 0.0 0.00 0.00 0.00 26 1004.8
20260506011511 77 161 1.7 0.0 0.00 0.00 0.00 26 1004.9
20260506010120 80 161 0.9 0.0 0.00 0.00 0.00 23 1005.1
20260506004603 79 162 0.9 0.0 0.00 0.00 0.00 24 1005.2
20260506003002 78 188 1.7 0.0 0.00 0.00 0.00 26 1005.4
20260506001615 76 188 0.9 0.0 0.00 0.00 0.00 25 1005.4
20260506000111 76 188 1.7 0.0 0.00 0.00 0.00 27 1005.7
20260505234537 76 186 1.7 0.0 0.00 0.00 0.00 25 1006.2
20260505233011 77 186 1.7 0.0 0.00 0.00 0.00 23 1006.2
20260505231604 78 172 1.7 0.0 0.00 0.00 0.00 22 1006.4
20260505230108 77 178 0.9 0.0 0.00 0.00 0.00 23 1006.6
20260505224611 77 173 2.6 0.0 0.00 0.00 0.00 26 1006.8
20260505223106 75 233 1.7 0.0 0.00 0.00 0.00 24 1006.9
20260505221514 75 265 1.7 0.0 0.00 0.00 0.00 28 1007.1
20260505220010 74 183 2.6 0.0 0.00 0.00 0.00 26 1007.3
20260505214637 74 185 2.6 0.0 0.00 0.00 0.00 25 1007.6
20260505213136 75 166 0.9 0.0 0.00 0.00 0.00 25 1007.7
20260505211504 74 166 1.7 0.0 0.00 0.00 0.00 26 1007.9
20260505210117 73 170 1.7 0.0 0.00 0.00 0.00 28 1008.2
20260505204524 72 178 5.2 0.0 0.00 0.00 0.00 28 1008.3
20260505203018 72 200 3.5 0.0 0.00 0.00 0.00 32 1008.4
20260505201615 72 183 1.7 0.0 0.00 0.00 0.00 29 1008.5
20260505200033 71 190 1.7 0.0 0.00 0.00 0.00 31 1008.7
20260505194523 70 186 3.5 0.0 0.00 0.00 0.00 32 1009.0
20260505193026 70 181 2.6 0.0 0.00 0.00 0.00 33 1009.2
20260505191521 68 181 3.5 0.0 0.00 0.00 0.00 35 1009.3
20260505190034 69 166 2.6 0.0 0.00 0.00 0.00 33 1009.4
20260505184616 68 171 0.9 0.0 0.00 0.00 0.00 32 1009.6
20260505183047 68 171 1.7 0.0 0.00 0.00 0.00 33 1009.8
20260505181529 68 171 0.0 0.0 0.00 0.00 0.00 33 1010.0
20260505180012 66 171 3.5 0.0 0.00 0.00 0.00 36 1010.0
20260505174622 63 131 0.0 0.0 0.00 0.00 0.00 39 1010.0
20260505173003 61 131 0.0 0.0 0.00 0.00 0.00 44 1010.2
20260505171626 58 131 0.0 0.0 0.00 0.00 0.00 50 1010.4
20260505170027 56 131 0.0 0.0 0.00 0.00 0.00 56 1010.4
20260505164526 54 131 0.0 0.0 0.00 0.00 0.00 58 1010.6
20260505163059 53 131 0.0 0.0 0.00 0.00 0.00 65 1010.7
20260505161629 51 131 0.0 0.0 0.00 0.00 0.00 63 1010.7
20260505160114 50 131 0.0 0.0 0.00 0.00 0.00 70 1010.9
20260505153001 46 131 0.0 0.0 0.00 0.00 0.00 71 1011.1
20260505151537 45 131 0.0 0.0 0.00 0.00 0.00 75 1011.2